Regional Weather Roundup
Issued by NWS

Home | Current Version | Previous Version | Text Only | Print | Product List | Glossary Off
Versions: 1 2 3 4 5 6 7 8 9 10 11 12 13 14 15 16 17 18 19 20 21 22 23 24 25 26 27 28 29 30 31 32 33 34 35 36 37 38 39 40 41 42 43 44 45 46 47 48 49 50

000
ASUS43 KIND 261259
RWRIN

WEATHER ROUNDUP FOR INDIANA
NATIONAL WEATHER SERVICE INDIANAPOLIS IN
800 AM EST SUN FEB 26 2017

NOTE: "FAIR" INDICATES FEW OR NO CLOUDS BELOW 12,000 FEET WITH NO
SIGNIFICANT WEATHER AND/OR OBSTRUCTIONS TO VISIBILITY.

* - STATION DOES NOT REPORT WEATHER SUCH AS PRECIPITATION OR FOG.

+ - STATION NOT QUALITY CONTROLLED BY THE NATIONAL WEATHER SERVICE.
    USE DATA WITH CAUTION...ESPECIALLY DEWPOINT AND RELATIVE
    HUMIDITY OBSERVATIONS.

INZ001>003-010>013-019-020-261400-
NORTHWEST INDIANA

CITY           SKY/WX    TMP DP  RH WIND       PRES   REMARKS
GARY /AIRPORT/ CLOUDY    27  19  74 S8        30.05F WCI  18
KNOX *+        CLEAR     21   5  49 S7        30.08S WCI  13

$$

LMZ046-743>745-261400-
SOUTHERN LAKE MICHIGAN

STATION/POSITION TIME  TEMP    WIND        PRES    WAVE
                       AIR SEA DIR/SP/G            HT
                 (UTC) (F)     (DEG/KT/KT) (MB)    (FT)
BURNS HARBOR     1240   24     180/ 10/ 16 1017.9S
MICHIGAN CITY    1230   23     140/ 11/ 15   N/A

$$

INZ004-005-014>016-021>024-261400-
NORTH CENTRAL INDIANA

CITY           SKY/WX    TMP DP  RH WIND       PRES   REMARKS
GOSHEN         PTCLDY    22  15  75 S8        30.09R WCI  12
SOUTH BEND     CLEAR     20  15  81 S7        30.07S WCI  11

$$

INZ006>009-017-018-025>027-261400-
NORTHEAST INDIANA

CITY           SKY/WX    TMP DP  RH WIND       PRES   REMARKS
ANGOLA *+      CLEAR     21  18  86 SW6       30.07R WCI  14
FORT WAYNE     PTCLDY    23  17  78 SW7       30.12R WCI  15
KENDALLVILLE + CLEAR     22  17  81 SW6       30.09R WCI  14

$$

INZ028-029-035-036-043>045-051>053-261400-
WEST CENTRAL INDIANA

CITY           SKY/WX    TMP DP  RH WIND       PRES   REMARKS
LAFAYETTE      CLEAR     21  19  92 S6        30.13R WCI  13
TERRE HAUTE    CLEAR     23  16  74 SE9       30.15F WCI  13

$$

INZ030>032-037>040-046>048-054>057-064-065-261400-
CENTRAL INDIANA

CITY           SKY/WX    TMP DP  RH WIND       PRES   REMARKS
COLUMBUS       CLEAR     19  18  93 S5        30.20R WCI  13
GREENWOOD *+   CLEAR     23  18  79 S5        30.17S WCI  17
INDIANAPOLIS   PTCLDY    22  16  78 S6        30.16R WCI  14
-EAGLE CREEK   CLEAR     22  16  78 S5        30.15R WCI  16
KOKOMO +       CLEAR     21  19  92 S7        30.13S WCI  12
MT COMFORT *+  CLEAR     21  18  86 S5        30.16R WCI  15
SHELBYVILLE    CLEAR     23  15  71 S6        30.16S WCI  16

$$

INZ033-034-041-042-049-050-058-059-261400-
EAST CENTRAL INDIANA

CITY           SKY/WX    TMP DP  RH WIND       PRES   REMARKS
MUNCIE         CLEAR     23  18  81 SW5       30.14R WCI  17

$$

INZ060-061-067>069-081>083-085>088-261400-
SOUTHWEST INDIANA

CITY           SKY/WX    TMP DP  RH WIND       PRES   REMARKS
EVANSVILLE     CLEAR     26  19  74 CALM      30.20F
HUNTINGBURG *+ CLEAR     21  18  86 SE6       30.20F WCI  14

$$

INZ062-063-066-070>080-084-089>092-261400-
SOUTH CENTRAL AND SOUTHEAST INDIANA

CITY           SKY/WX    TMP DP  RH WIND       PRES   REMARKS
BLOOMINGTON    CLEAR     19  14  81 SE5       30.16S WCI  12
MADISON *+     PTCLDY    25  19  80 CALM      30.23R
SEYMOUR +      CLEAR     25  18  74 S6        30.22R WCI  18

$$




USA.gov is the U.S. government's official web portal to all federal, state and local government web resources and services.